GW0451 Weather Reports


time (UTC)temp
F
wind
direction
speed
knots
gust
knots
rain 1hr
in
rain 24hr
in
rain mn
in
humidity
%
barometer
mb
20260504050537 38 0 0.0 0.0 0.00 0.00 0.00 80 1013.5
20260504045539 38 0 0.0 0.0 0.00 0.00 0.00 80 1013.4
20260504045039 39 0 0.0 0.0 0.00 0.00 0.00 80 1013.5
20260504044545 39 0 0.0 0.0 0.00 0.00 0.00 79 1013.5
20260504044039 39 0 0.0 0.0 0.00 0.00 0.00 79 1013.4
20260504043539 39 0 0.0 0.0 0.00 0.00 0.00 79 1013.5
20260504043051 39 0 0.0 0.0 0.00 0.00 0.00 79 1013.5
20260504042539 39 0 0.0 0.0 0.00 0.00 0.00 79 1013.4
20260504042039 39 0 0.0 0.0 0.00 0.00 0.00 79 1013.4
20260504041551 40 0 0.0 0.0 0.00 0.00 0.00 78 1013.4
20260504041036 40 0 0.0 0.0 0.00 0.00 0.00 78 1013.4
20260504040536 40 0 0.0 0.0 0.00 0.00 0.00 78 1013.3
20260504040131 40 0 0.0 0.0 0.00 0.00 0.00 77 1013.2
20260504035539 40 0 0.0 0.0 0.00 0.00 0.00 77 1013.3
20260504035037 41 0 0.0 0.0 0.00 0.00 0.00 76 1013.2
20260504034556 41 0 0.0 0.0 0.00 0.00 0.00 76 1013.0
20260504034036 41 0 0.0 0.0 0.00 0.00 0.00 76 1013.0
20260504033536 41 0 0.0 0.0 0.00 0.00 0.00 76 1013.0
20260504033052 41 0 0.0 0.0 0.00 0.00 0.00 75 1012.9
20260504032541 41 0 0.0 0.0 0.00 0.00 0.00 75 1012.9
20260504032039 42 0 0.0 0.0 0.00 0.00 0.00 74 1012.9
20260504031601 42 0 0.0 0.0 0.00 0.00 0.00 74 1013.0
20260504031036 42 0 0.0 0.0 0.00 0.00 0.00 74 1013.0
20260504030536 42 0 0.0 0.0 0.00 0.00 0.00 73 1012.9
20260504030049 42 0 0.0 0.0 0.00 0.00 0.00 73 1012.9
20260504025537 43 0 0.0 0.0 0.00 0.00 0.00 73 1012.9
20260504025036 43 0 0.0 0.0 0.00 0.00 0.00 73 1012.9
20260504024553 43 0 0.0 0.0 0.00 0.00 0.00 72 1012.8
20260504024036 43 0 0.0 0.0 0.00 0.00 0.00 72 1012.9
20260504023536 43 0 0.0 0.0 0.00 0.00 0.00 71 1012.9
20260504023052 44 0 0.0 0.0 0.00 0.00 0.00 71 1012.8
20260504022536 44 0 0.0 0.0 0.00 0.00 0.00 70 1013.0
20260504022039 44 0 0.0 0.0 0.00 0.00 0.00 70 1012.8
20260504021548 44 0 0.0 0.0 0.00 0.00 0.00 70 1012.8
20260504021039 45 0 0.0 0.0 0.00 0.00 0.00 69 1012.9
20260504020536 45 0 0.0 0.0 0.00 0.00 0.00 68 1012.8
20260504020106 46 0 0.0 0.0 0.00 0.00 0.00 68 1013.0
20260504015541 46 0 0.0 0.9 0.00 0.00 0.00 67 1012.9
20260504015037 46 0 0.0 1.7 0.00 0.00 0.00 66 1012.9
20260504014554 47 0 0.0 1.7 0.00 0.00 0.00 65 1012.8
20260504014036 48 0 0.0 1.7 0.00 0.00 0.00 64 1012.8
20260504013538 48 0 0.0 1.7 0.00 0.00 0.00 63 1012.7
20260504013051 49 0 0.0 1.7 0.00 0.00 0.00 61 1012.7
20260504012539 50 0 0.0 0.0 0.00 0.00 0.00 59 1012.7
20260504012042 50 0 0.0 0.0 0.00 0.00 0.00 58 1012.7
20260504011551 51 0 0.0 0.0 0.00 0.00 0.00 55 1012.5
20260504011039 52 0 0.0 0.0 0.00 0.00 0.00 54 1012.4
20260504010536 52 0 0.0 0.0 0.00 0.00 0.00 51 1012.6
20260504010055 53 0 0.0 0.9 0.00 0.00 0.00 52 1012.4
20260504005539 53 0 0.0 0.9 0.00 0.00 0.00 51 1012.5
20260504005042 54 0 0.0 0.9 0.00 0.00 0.00 50 1012.5
20260504004547 54 0 0.0 0.0 0.00 0.00 0.00 48 1012.4
20260504004038 55 0 0.0 0.0 0.00 0.00 0.00 49 1012.3
20260504003539 55 0 0.0 0.9 0.00 0.00 0.00 47 1012.3
20260504003046 56 0 0.0 0.9 0.00 0.00 0.00 45 1012.2
20260504002539 56 0 0.0 1.7 0.00 0.00 0.00 42 1012.1
20260504002036 56 0 0.0 1.7 0.00 0.00 0.00 43 1012.1
20260504001552 56 0 0.0 3.5 0.00 0.00 0.00 40 1012.0
20260504001039 56 0 0.0 3.5 0.00 0.00 0.00 40 1012.0
20260504000538 57 0 0.9 4.3 0.00 0.00 0.00 40 1011.9
20260504000050 57 221 1.7 9.6 0.00 0.00 0.00 38 1011.9
20260503235539 57 192 1.7 9.6 0.00 0.00 0.00 38 1011.8
20260503235037 57 240 0.9 9.6 0.00 0.00 0.00 37 1011.9
20260503234620 58 228 3.5 9.6 0.00 0.00 0.00 36 1011.8
20260503234037 58 216 0.9 7.0 0.00 0.00 0.00 37 1011.8
20260503233538 58 348 0.9 7.8 0.00 0.00 0.00 36 1011.8
20260503233050 58 229 2.6 9.6 0.00 0.00 0.00 36 1011.7
20260503232536 58 321 3.5 9.6 0.00 0.00 0.00 35 1011.7
20260503232039 59 243 3.5 9.6 0.00 0.00 0.00 35 1011.7
20260503231549 59 250 2.6 10.4 0.00 0.00 0.00 35 1011.7
20260503231036 59 196 1.7 10.4 0.00 0.00 0.00 35 1011.6
20260503230541 59 222 2.6 12.2 0.00 0.00 0.00 34 1011.6
20260503230054 59 205 2.6 12.2 0.00 0.00 0.00 34 1011.5
20260503225538 59 244 5.2 12.2 0.00 0.00 0.00 34 1011.5
20260503225043 60 225 2.6 9.6 0.00 0.00 0.00 34 1011.5
20260503224550 60 0 3.5 10.4 0.00 0.00 0.00 34 1011.6
20260503224040 60 276 2.6 10.4 0.00 0.00 0.00 34 1011.6
20260503223539 60 258 3.5 11.3 0.00 0.00 0.00 33 1011.6
20260503223050 60 257 3.5 11.3 0.00 0.00 0.00 33 1011.7
20260503222543 60 258 3.5 10.4 0.00 0.00 0.00 33 1011.6
20260503222036 61 192 2.6 8.7 0.00 0.00 0.00 34 1011.7
20260503221556 61 283 2.6 12.2 0.00 0.00 0.00 34 1011.6
20260503221040 61 298 4.3 12.2 0.00 0.00 0.00 32 1011.6
20260503220540 61 215 1.7 8.7 0.00 0.00 0.00 33 1011.6
20260503220055 61 306 1.7 10.4 0.00 0.00 0.00 32 1011.6
20260503215540 61 261 2.6 12.2 0.00 0.00 0.00 32 1011.6
20260503215040 61 289 3.5 14.8 0.00 0.00 0.00 32 1011.6
20260503214550 61 243 4.3 14.8 0.00 0.00 0.00 32 1011.5
20260503214040 61 245 2.6 14.8 0.00 0.00 0.00 32 1011.6
20260503213541 61 243 5.2 12.2 0.00 0.00 0.00 32 1011.5
20260503213047 60 238 3.5 12.2 0.00 0.00 0.00 33 1011.3
20260503212539 60 326 4.3 12.2 0.00 0.00 0.00 33 1011.3
20260503212041 60 234 4.3 14.8 0.00 0.00 0.00 33 1011.3
20260503211552 60 252 2.6 14.8 0.00 0.00 0.00 33 1011.4
20260503211040 60 0 4.3 13.9 0.00 0.00 0.00 33 1011.4
20260503210540 60 187 2.6 8.7 0.00 0.00 0.00 33 1011.3
20260503210047 61 221 2.6 10.4 0.00 0.00 0.00 33 1011.4
20260503205541 61 268 1.7 10.4 0.00 0.00 0.00 33 1011.4
20260503205040 60 260 1.7 9.6 0.00 0.00 0.00 34 1011.4
20260503204553 60 274 3.5 9.6 0.00 0.00 0.00 33 1011.4
20260503204040 59 290 1.7 8.7 0.00 0.00 0.00 34 1011.4
20260503203540 59 0 2.6 9.6 0.00 0.00 0.00 33 1011.4
20260503203057 60 226 2.6 12.2 0.00 0.00 0.00 33 1011.5
20260503202542 60 334 3.5 14.8 0.00 0.00 0.00 33 1011.5
20260503202042 61 245 0.9 14.8 0.00 0.00 0.00 33 1011.4
20260503201551 61 290 3.5 9.6 0.00 0.00 0.00 33 1011.4
20260503201039 60 329 2.6 13.0 0.00 0.00 0.00 32 1011.4
20260503200540 60 334 2.6 13.0 0.00 0.00 0.00 35 1011.5
20260503200054 59 246 5.2 13.0 0.00 0.00 0.00 33 1011.3
20260503195544 59 200 1.7 11.3 0.00 0.00 0.00 35 1011.4
20260503195042 59 275 3.5 11.3 0.00 0.00 0.00 34 1011.6
20260503194558 59 187 3.5 11.3 0.00 0.00 0.00 34 1011.5
20260503194040 59 238 3.5 7.8 0.00 0.00 0.00 34 1011.8
20260503193540 58 360 1.7 5.2 0.00 0.00 0.00 35 1011.9
20260503193056 58 250 0.9 8.7 0.00 0.00 0.00 33 1012.0
20260503192540 58 297 1.7 11.3 0.00 0.00 0.00 34 1012.1
20260503192040 58 234 0.9 11.3 0.00 0.00 0.00 35 1012.2
20260503191554 58 279 4.3 12.2 0.00 0.00 0.00 33 1012.2
20260503191042 58 159 5.2 12.2 0.00 0.00 0.00 33 1012.3
20260503190610 58 336 2.6 7.8 0.00 0.00 0.00 33 1012.4
20260503190050 58 253 0.9 9.6 0.00 0.00 0.00 34 1012.4
20260503185540 58 233 2.6 9.6 0.00 0.00 0.00 33 1012.4
20260503185041 58 259 3.5 9.6 0.00 0.00 0.00 33 1012.5
20260503184557 58 266 1.7 10.4 0.00 0.00 0.00 32 1012.5
20260503184041 58 313 3.5 10.4 0.00 0.00 0.00 32 1012.7
20260503183541 58 287 2.6 14.8 0.00 0.00 0.00 34 1012.8
20260503183054 58 355 2.6 14.8 0.00 0.00 0.00 32 1012.9
20260503182539 58 300 5.2 14.8 0.00 0.00 0.00 34 1012.9
20260503182041 57 326 2.6 13.9 0.00 0.00 0.00 34 1012.9
20260503181552 57 288 6.1 13.9 0.00 0.00 0.00 34 1012.9
20260503181041 57 262 4.3 13.9 0.00 0.00 0.00 35 1012.9
20260503180541 57 210 5.2 13.0 0.00 0.00 0.00 35 1012.9
20260503180100 57 355 4.3 12.2 0.00 0.00 0.00 35 1013.0
20260503175541 57 190 1.7 10.4 0.00 0.00 0.00 36 1013.0
20260503175040 56 223 1.7 10.4 0.00 0.00 0.00 37 1013.2
20260503174557 55 300 3.5 12.2 0.00 0.00 0.00 36 1013.2
20260503174036 55 243 2.6 14.8 0.00 0.00 0.00 36 1013.3
20260503173536 56 277 3.5 14.8 0.00 0.00 0.00 35 1013.3
20260503173047 56 258 5.2 14.8 0.00 0.00 0.00 36 1013.4
20260503172538 56 355 2.6 12.2 0.00 0.00 0.00 37 1013.3
20260503172037 55 261 4.3 14.8 0.00 0.00 0.00 37 1013.4
20260503171552 55 285 4.3 14.8 0.00 0.00 0.00 39 1013.6
20260503171039 54 300 4.3 14.8 0.00 0.00 0.00 38 1013.7
20260503170539 54 184 2.6 9.6 0.00 0.00 0.00 39 1013.6
20260503150539 49 338 0.9 5.2 0.00 0.00 0.00 46 1014.6
20260503131040 44 275 1.7 9.6 0.00 0.00 0.00 58 1015.0
20260503130545 44 320 1.7 9.6 0.00 0.00 0.00 59 1015.0
20260503110540 37 270 0.0 2.6 0.00 0.00 0.00 77 1014.4
20260503110107 37 0 0.0 1.7 0.00 0.00 0.00 77 1014.4
20260503081544 42 0 0.0 1.7 0.00 0.00 0.00 65 1013.2
20260503081040 42 360 0.0 2.6 0.00 0.00 0.00 64 1013.2
20260503080544 42 317 0.0 2.6 0.00 0.00 0.00 64 1013.2
20260503072540 43 0 0.0 3.5 0.00 0.07 0.00 64 1012.7
20260503072038 43 0 0.9 3.5 0.00 0.07 0.00 65 1012.7
20260503071601 43 346 0.0 3.5 0.00 0.07 0.00 64 1012.7
20260503071040 43 351 0.9 3.5 0.00 0.07 0.00 64 1012.7
20260503070540 43 0 0.0 0.0 0.00 0.07 0.00 65 1012.7